TimeMDT,TemperatureF,Dew PointF,Humidity,Sea Level PressureIn,VisibilityMPH,Wind Direction,Wind SpeedMPH,Gust SpeedMPH,PrecipitationIn,Events,Conditions,WindDirDegrees,DateUTC
12:15 AM,28.4,15.8,59,30.35,10.0,Calm,Calm,-,N/A,,Clear,0,2013-10-24 06:15:00
12:55 AM,28.4,15.8,59,30.35,10.0,Calm,Calm,-,N/A,,Clear,0,2013-10-24 06:55:00
1:15 AM,26.6,15.8,64,30.36,10.0,East,3.5,-,N/A,,Clear,80,2013-10-24 07:15:00
1:35 AM,28.4,17.6,64,30.36,10.0,Calm,Calm,-,N/A,,Clear,0,2013-10-24 07:35:00
1:55 AM,26.6,17.6,69,30.36,10.0,Calm,Calm,-,N/A,,Clear,0,2013-10-24 07:55:00
2:15 AM,26.6,14.0,59,30.36,10.0,Calm,Calm,-,N/A,,Clear,0,2013-10-24 08:15:00
2:35 AM,24.8,15.8,69,30.37,10.0,East,3.5,-,N/A,,Clear,90,2013-10-24 08:35:00
2:55 AM,26.6,17.6,69,30.36,10.0,Calm,Calm,-,N/A,,Clear,0,2013-10-24 08:55:00
3:15 AM,24.8,12.2,59,30.37,10.0,Calm,Calm,-,N/A,,Clear,0,2013-10-24 09:15:00
3:35 AM,24.8,15.8,69,30.36,10.0,Calm,Calm,-,N/A,,Clear,0,2013-10-24 09:35:00
3:55 AM,24.8,12.2,59,30.37,10.0,Calm,Calm,-,N/A,,Clear,0,2013-10-24 09:55:00
4:35 AM,24.8,15.8,69,30.37,10.0,Calm,Calm,-,N/A,,Clear,0,2013-10-24 10:35:00
4:55 AM,24.8,15.8,69,30.38,10.0,Calm,Calm,-,N/A,,Clear,0,2013-10-24 10:55:00
5:15 AM,21.2,15.8,80,30.38,10.0,Calm,Calm,-,N/A,,Clear,0,2013-10-24 11:15:00
5:55 AM,23.0,12.2,63,30.39,10.0,North,3.5,-,N/A,,Clear,10,2013-10-24 11:55:00
6:15 AM,23.0,15.8,74,30.39,10.0,Calm,Calm,-,N/A,,Clear,0,2013-10-24 12:15:00
6:35 AM,19.4,12.2,74,30.39,10.0,Calm,Calm,-,N/A,,Clear,0,2013-10-24 12:35:00
6:55 AM,21.2,15.8,80,30.40,10.0,North,3.5,-,N/A,,Clear,360,2013-10-24 12:55:00
7:15 AM,21.2,14.0,74,30.40,10.0,Calm,Calm,-,N/A,,Clear,0,2013-10-24 13:15:00
7:35 AM,19.4,12.2,74,30.40,10.0,NE,3.5,-,N/A,,Clear,40,2013-10-24 13:35:00
7:55 AM,19.4,12.2,74,30.41,10.0,Calm,Calm,-,N/A,,Clear,0,2013-10-24 13:55:00
8:15 AM,19.4,14.0,80,30.41,10.0,Calm,Calm,-,N/A,,Clear,0,2013-10-24 14:15:00
8:35 AM,23.0,15.8,74,30.42,10.0,Calm,Calm,-,N/A,,Clear,0,2013-10-24 14:35:00
8:55 AM,26.6,15.8,64,30.42,10.0,ENE,3.5,-,N/A,,Clear,60,2013-10-24 14:55:00
9:15 AM,26.6,17.6,69,30.42,10.0,Calm,Calm,-,N/A,,Clear,0,2013-10-24 15:15:00
9:35 AM,30.2,17.6,60,30.42,10.0,Calm,Calm,-,N/A,,Clear,0,2013-10-24 15:35:00
10:15 AM,35.6,19.4,52,30.42,10.0,Calm,Calm,-,N/A,,Clear,0,2013-10-24 16:15:00
10:35 AM,37.4,19.4,48,30.41,10.0,Calm,Calm,-,N/A,,Clear,0,2013-10-24 16:35:00
10:55 AM,39.2,19.4,45,30.40,10.0,Calm,Calm,-,N/A,,Clear,0,2013-10-24 16:55:00
11:15 AM,42.8,19.4,39,30.40,10.0,Calm,Calm,-,N/A,,Clear,0,2013-10-24 17:15:00
11:35 AM,42.8,19.4,39,30.39,10.0,Calm,Calm,-,N/A,,Clear,0,2013-10-24 17:35:00
11:55 AM,44.6,19.4,37,30.38,10.0,Calm,Calm,-,N/A,,Clear,0,2013-10-24 17:55:00
12:15 PM,46.4,19.4,34,30.37,10.0,Calm,Calm,-,N/A,,Clear,0,2013-10-24 18:15:00
12:35 PM,50.0,19.4,30,30.36,10.0,Calm,Calm,-,N/A,,Clear,0,2013-10-24 18:35:00
12:55 PM,51.8,19.4,28,30.34,10.0,North,3.5,-,N/A,,Clear,360,2013-10-24 18:55:00
1:15 PM,51.8,19.4,28,30.32,10.0,Calm,Calm,-,N/A,,Clear,0,2013-10-24 19:15:00
1:35 PM,53.6,19.4,26,30.31,10.0,Calm,Calm,-,N/A,,Clear,0,2013-10-24 19:35:00
1:55 PM,57.2,19.4,23,30.30,10.0,SSE,3.5,-,N/A,,Clear,150,2013-10-24 19:55:00
2:15 PM,57.2,19.4,23,30.29,10.0,Calm,Calm,-,N/A,,Clear,0,2013-10-24 20:15:00
2:35 PM,57.2,19.4,23,30.28,5.0,SSE,5.8,-,N/A,,Clear,160,2013-10-24 20:35:00
2:55 PM,59.0,19.4,22,30.27,10.0,SSW,3.5,-,N/A,,Clear,210,2013-10-24 20:55:00
3:15 PM,60.8,19.4,20,30.27,10.0,SSW,4.6,-,N/A,,Clear,200,2013-10-24 21:15:00
3:35 PM,60.8,19.4,20,30.26,10.0,NNW,5.8,-,N/A,,Clear,330,2013-10-24 21:35:00
3:55 PM,60.8,19.4,20,30.26,10.0,Calm,Calm,-,N/A,,Clear,0,2013-10-24 21:55:00
4:15 PM,60.8,19.4,20,30.26,10.0,South,5.8,-,N/A,,Clear,170,2013-10-24 22:15:00
4:35 PM,60.8,17.6,19,30.26,10.0,SSE,3.5,-,N/A,,Clear,150,2013-10-24 22:35:00
4:55 PM,60.8,19.4,20,30.26,10.0,SE,3.5,-,N/A,,Clear,130,2013-10-24 22:55:00
5:15 PM,60.8,19.4,20,30.26,10.0,ENE,4.6,-,N/A,,Clear,60,2013-10-24 23:15:00
5:35 PM,60.8,17.6,19,30.26,10.0,North,6.9,-,N/A,,Clear,10,2013-10-24 23:35:00
5:55 PM,59.0,15.8,19,30.26,10.0,North,8.1,-,N/A,,Clear,10,2013-10-24 23:55:00
6:35 PM,53.6,15.8,22,30.27,10.0,NNW,6.9,-,N/A,,Clear,330,2013-10-25 00:35:00
6:55 PM,51.8,17.6,26,30.28,10.0,West,3.5,-,N/A,,Clear,260,2013-10-25 00:55:00
7:15 PM,50.0,17.6,28,30.29,10.0,Calm,Calm,-,N/A,,Clear,0,2013-10-25 01:15:00
7:35 PM,46.4,17.6,32,30.30,10.0,North,3.5,-,N/A,,Clear,360,2013-10-25 01:35:00
7:55 PM,46.4,17.6,32,30.31,10.0,Calm,Calm,-,N/A,,Clear,0,2013-10-25 01:55:00
8:15 PM,44.6,17.6,34,30.31,10.0,Calm,Calm,-,N/A,,Clear,0,2013-10-25 02:15:00
8:35 PM,42.8,17.6,36,30.32,10.0,Calm,Calm,-,N/A,,Clear,0,2013-10-25 02:35:00
8:55 PM,41.0,17.6,39,30.32,10.0,Calm,Calm,-,N/A,,Clear,0,2013-10-25 02:55:00
9:15 PM,41.0,17.6,39,30.32,10.0,NNW,4.6,-,N/A,,Clear,330,2013-10-25 03:15:00
9:35 PM,39.2,17.6,42,30.33,10.0,Calm,Calm,-,N/A,,Clear,0,2013-10-25 03:35:00
9:55 PM,37.4,19.4,48,30.34,10.0,Calm,Calm,-,N/A,,Clear,0,2013-10-25 03:55:00
10:35 PM,35.6,17.6,48,30.34,10.0,Calm,Calm,-,N/A,,Clear,0,2013-10-25 04:35:00
10:55 PM,33.8,14.0,44,30.34,10.0,Calm,Calm,-,N/A,,Clear,0,2013-10-25 04:55:00
11:15 PM,30.2,15.8,55,30.35,10.0,NNW,3.5,-,N/A,,Clear,340,2013-10-25 05:15:00
11:35 PM,30.2,19.4,64,30.35,10.0,Calm,Calm,-,N/A,,Clear,0,2013-10-25 05:35:00
11:55 PM,32.0,19.4,60,30.35,10.0,Calm,Calm,-,N/A,,Clear,0,2013-10-25 05:55:00